Flag for Switzerland Weather past 2 weeks in Köniz, Bern, Switzerland

Now
57 °F

Clear.


Feels Like: 57 °F
Forecast: 54 / 77 °F
Wind: 2 mph from North

Location: Bern / Belp

Current Time: Aug 3, 2015 at 2:32:04 AM

Latest Report: Aug 3, 2015 at 1:50 AM


Visibility: 10 mi

Pressure: 30.09 "Hg (28.09 "Hg at 579m altitude)

Humidity: 100%

Dew point: 57 °F

Location of KönizLocation

Historic Weather in Köniz — Graph

°F

Köniz temperature yesterday

Maximum temperature yesterday: 77 °F (at 5:20 PM)
Minimum temperature yesterday: 59 °F (at 1:20 AM)
Average temperature yesterday: 66 °F

Past Weeks' High & Low Weather Summary

 TemperatureHumidityPressure
High93 °F (Jul 21, 3:20 PM)100% (Jul 20, 4:50 AM)30.12 "Hg (Jul 20, 4:50 AM)
Low45 °F (Jul 31, 4:50 AM)30% (Jul 21, 3:50 PM)29.74 "Hg (Jul 24, 5:20 PM)
Average68 °F73%29.98 "Hg
* Reported Jul 19 1:20 AM — Aug 3 1:20 AM, Köniz, Weather by CustomWeather, © 2015

Note: Actual official high and low records may vary slightly from our data, if they occured in-between our weather recording intervals... More about our weather records

Advertising

Köniz weather history for previous 24 hours

 ConditionsComfort  
Time TempWeatherWind HumidityBarometerVisibility
1:20 AM
Mon, Aug 3
59 °FCool.1 mph100%30.09 "Hg5 mi
12:50 AM59 °FClear.2 mph100%30.09 "Hg10 mi
12:20 AM59 °FClear.2 mph100%30.07 "Hg10 mi
11:50 PM
Sun, Aug 2
61 °FClear.1 mph94%30.09 "Hg10 mi
11:20 PM61 °FClear.1 mph94%30.07 "Hg10 mi
10:50 PM61 °FClear.1 mph94%30.07 "Hg10 mi
10:20 PM64 °FClear.1 mph88%30.07 "Hg10 mi
9:50 PM66 °FSunny.2 mph83%30.07 "Hg10 mi
9:20 PM68 °FSunny.2 mph78%30.07 "Hg10 mi
8:50 PM72 °FPassing clouds.5 mph65%30.04 "HgN/A
8:20 PM75 °FSunny.3 mph57%30.04 "Hg10 mi
7:50 PM77 °FPassing clouds.6 mph54%30.04 "HgN/A
7:20 PM77 °FPassing clouds.6 mph54%30.04 "HgN/A
6:50 PM77 °FPassing clouds.5 mph54%30.04 "HgN/A
6:20 PM77 °FPassing clouds.7 mph54%30.07 "HgN/A
5:50 PM77 °FScattered clouds.6 mph54%30.07 "HgN/A
5:20 PM77 °FScattered clouds.6 mph54%30.07 "HgN/A
4:50 PM75 °FScattered clouds.7 mph61%30.07 "HgN/A
4:20 PM75 °FScattered clouds.6 mph57%30.07 "HgN/A
3:50 PM75 °FScattered clouds.8 mph61%30.07 "HgN/A
3:20 PM75 °FScattered clouds.7 mph61%30.07 "HgN/A
2:50 PM75 °FScattered clouds.6 mph61%30.07 "HgN/A
2:20 PM73 °FScattered clouds.6 mph65%30.09 "HgN/A
1:50 PM75 °FScattered clouds.7 mph65%30.09 "HgN/A
1:20 PM72 °FScattered clouds.3 mph73%30.09 "HgN/A
12:50 PM72 °FScattered clouds.5 mph73%30.09 "HgN/A
12:20 PM70 °FScattered clouds.3 mph73%30.09 "HgN/A
11:50 AM70 °FScattered clouds.5 mph73%30.12 "HgN/A
11:20 AM68 °FBroken clouds.5 mph78%30.12 "HgN/A
10:50 AM66 °FBroken clouds.5 mph88%30.12 "HgN/A
10:20 AM64 °FScattered clouds.2 mph88%30.12 "Hg5 mi
9:50 AM63 °FBroken clouds.5 mph94%30.12 "Hg5 mi
9:20 AM61 °FPartly sunny.5 mph94%30.12 "Hg4 mi
8:50 AM61 °FBroken clouds.2 mph100%30.12 "Hg4 mi
8:20 AM61 °FPartly sunny.2 mph100%30.12 "Hg4 mi
7:50 AM61 °FFog.5 mph100%30.12 "Hg3 mi
7:20 AM61 °FFog.2 mph100%30.12 "Hg2 mi
6:50 AM59 °FFog.2 mph100%30.12 "Hg1 mi
6:20 AM59 °FFog.2 mph100%30.09 "Hg1 mi
5:50 AM59 °FFog.3 mph100%30.09 "Hg1 mi
5:20 AM59 °FFog.No wind100%30.09 "Hg2 mi
4:50 AM59 °FPassing clouds.1 mph100%30.09 "Hg3 mi
4:20 AM59 °FFog.2 mph100%30.09 "Hg1 mi
3:50 AM59 °FPassing clouds.1 mph100%30.09 "Hg1 mi
3:20 AM59 °FFog.1 mph100%30.09 "Hg0 mi
2:50 AM59 °FFog.1 mph100%30.09 "Hg0 mi
2:20 AM59 °FFog.No wind100%30.09 "Hg0 mi
Weather by CustomWeather, © 2015

See weather overviewHow to use our weather pages